Location: Coopersdale
(40.3556°N, 78.9372°W)
Time: 09:18:49
(UTC+00:00)

Envisat - Pass Details

Date: 29 November 2020
Orbit: 764 x 766 km, 98.1° (Epoch: 15 January)

Event Time Altitude Azimuth Distance (km) Brightness Sun altitude
Rises 11:34:02 0° 8° (N) 3,241 6.1 -8.4°
Reaches altitude 10° 11:36:23 10° 4° (N) 2,311 5.3 -8.0°
Maximum altitude 11:41:21 56° 287° (WNW) 905 3.1 -7.1°
Drops below altitude 10° 11:46:17 10° 210° (SSW) 2,294 5.4 -6.3°
Sets 11:48:37 0° 206° (SSW) 3,216 6.2 -5.9°
